Location: Killam
(52.7910°N, 111.8608°W)
Time: 22:50:03
(UTC+00:00)

Vanguard 3 - Pass Details

Date: 24 February 2026
Orbit: 507 x 3205 km, 33.4° (Epoch: 11 March)

Event Time Altitude Azimuth Distance (km) Brightness Sun altitude
Rises 22:21:59 0° 235° (SW) 6,515 13.3 19.1°
Reaches altitude 10° 22:27:53 10° 224° (SW) 5,064 13.8 18.5°
Maximum altitude 22:37:36 24° 179° (S) 3,159 11.0 17.5°
Drops below altitude 10° 22:44:20 10° 130° (SE) 3,381 10.3 16.7°
Sets 22:47:19 0° 116° (ESE) 3,995 10.5 16.4°
